Date,Observed XCO2,Standard Distribution,Visibility
2014/7/8,396.2919577,0.662025048,6250
2014/7/9,396.8479822,0.710591374,5500
2014/7/11,398.4321566,0.719606896,6250
2014/7/12,399.5261983,0.805937032,5750
2014/7/13,400.7846782,0.781248966,5500
2014/7/15,401.2462399,0.716545378,5000
2014/7/16,401.7485137,0.651030581,6000
2014/7/17,401.1940251,0.694028863,7250
2014/7/18,401.7795723,1.022260315,3600
2014/7/19,402.1817892,0.733796817,6500
2014/7/20,400.0318802,0.840672095,3250
2014/7/21,398.8938157,0.845701831,3000
2014/7/22,398.297675,0.646896706,6500
2014/7/23,400.4096307,0.827158325,6500
2014/7/24,401.2243431,0.698817379,6500
2014/7/25,398.8066205,0.890646665,6500
2014/7/26,399.1348969,0.800219324,3500
2014/7/27,400.2611431,0.744605944,5500
2014/7/28,400.2411969,0.700088792,3125
2014/7/29,398.7961326,0.974996864,7500
2014/7/30,398.4527283,0.811563029,4500
2014/7/31,397.5248428,0.840594083,5250
2014/8/1,397.1884499,1.150117348,6500
2014/8/2,398.0109098,0.646100952,5500
2014/8/3,396.6810248,0.89472893,3750
2014/8/4,399.1688028,0.700383381,6000
2014/8/5,399.8888397,0.68610096,
2014/8/6,399.0327796,0.81204429,
2014/8/7,396.6873152,0.948480849,
2014/8/8,398.7281682,0.684030676,
2014/8/9,398.1855723,0,
2014/8/10,398.6579152,0.831705567,
2014/8/11,399.306937,0.788776516,
2014/8/12,399.5422396,0.787929558,
2014/8/13,399.4523641,0.952626338,
2014/8/14,399.9710109,0.986681231,
2014/8/15,400.7083518,0.899160181,
2014/8/16,401.7197977,0.763903916,
2014/8/17,402.2430717,0.816894243,
2014/8/18,402.4173613,0.845065906,
2014/8/20,401.4575397,0.824426173,5750
2014/8/21,402.5955037,0.905307176,4750
2014/8/23,403.1309096,0.773933166,4250
2014/8/24,404.1060087,1.223377966,6000
2014/8/27,402.1109819,1.002714914,
2014/9/1,399.6286814,1.404810397,
2014/9/2,399.0211799,1.059321474,
2014/9/3,400.3944357,1.614218702,
2014/9/4,401.0146154,0.899103147,
2014/9/5,401.7947806,1.059077753,
2014/9/6,401.5517321,0.969361493,
2014/9/7,404.2863713,1.009818712,
2014/9/8,400.478823,0.647619646,1750
2014/9/9,402.0838725,0.973068371,5000
2014/9/10,400.9781655,0.923953573,5250
2014/9/11,400.9583567,1.098833394,5250
2014/9/12,402.0982626,0.912969411,5000
2014/9/13,403.5412722,1.252640424,700
2014/9/14,402.776777,0.99067782,3450
2014/9/15,404.0694191,1.232906597,3250
2014/9/16,403.8124696,1.260115386,1225
2014/9/17,402.2001054,1.012587869,2575
2014/9/18,400.2412843,0.816931977,5000
2014/9/19,403.1967941,1.020322598,1575
2014/9/20,404.9425718,1.018661668,3500
2014/9/23,400.9509616,1.020118339,2125
2014/9/24,402.6033912,0.755424894,300
2014/9/27,399.2616933,0.996315901,1000
2014/10/2,401.9152708,2.083173034,850
2014/10/3,403.3298494,1.215730099,500
2014/10/23,399.6529289,0.611660227,3050
2014/11/12,395.7996163,1.061806285,6000
2014/11/13,397.2234351,0.920265509,6250
2014/11/15,396.4351238,0.887388003,6500
2014/11/16,396.1608663,0.900824551,6250
2014/11/18,395.4646618,0.868990272,6250
2014/11/19,396.7887246,0.873980343,4750
2014/11/20,395.235814,1.002100106,6750
2014/11/21,394.3956549,1.076144152,5500
2014/11/22,395.6216905,0.920431509,6500
2014/11/23,395.6703791,0.91180299,6250
2014/11/24,395.7017525,0.960299627,7000
2014/11/25,394.9263767,0.840763934,7500
2014/11/27,394.7577204,0.968964611,6500
2014/11/29,396.6303752,0.860497888,7500
2014/11/30,396.978928,0.975058687,7250
2014/12/1,396.9005252,0.866530867,
2014/12/2,396.7835871,0.7886476,
2014/12/3,395.6617493,0.875408769,
2014/12/4,396.3100461,0.88917804,
2014/12/6,396.435989,0.722116475,
2014/12/7,397.5559244,0.845214509,
2014/12/8,397.5573901,0.802093423,
2014/12/9,397.0983682,0.936332141,
2014/12/11,396.702076,1.032659663,
2014/12/12,395.0454976,0.924772786,
2014/12/13,396.0369584,0.866865048,
2014/12/14,395.2906846,0.866881675,
2014/12/16,395.2382559,0.779902467,
2014/12/17,395.8408402,0.956729874,
2014/12/19,394.9507344,1.033968044,
2014/12/20,395.2456075,0.975508934,
2014/12/25,394.56817,0.874657546,
2014/12/26,393.8601306,1.000387718,
2014/12/27,395.8526104,0.975548274,
2014/12/29,395.8453733,1.259399255,
2014/12/30,394.3906777,0.73678391,
2015/1/1,396.6700758,0.905740949,10000
2015/1/2,397.0315759,0.727895857,7000
2015/1/3,396.4611584,0.642266222,7250
2015/1/4,395.5171811,0.931845399,6500
2015/1/5,394.8337636,0.789416465,7000
2015/1/6,396.0201233,0.841614648,6500
2015/1/7,397.1832732,0.829790081,6999.75
2015/1/8,395.6022214,0.816071623,6750
2015/1/9,396.7042595,0.747301307,6500
2015/1/10,397.2987739,0.9760092,7250
2015/1/11,396.8630453,0.96100288,7250
2015/1/12,395.3703323,0.866067619,6750
2015/1/13,395.2771043,0.973601192,7250
2015/1/14,397.4631954,0.793451004,6000
2015/1/15,397.1336891,0.864006789,7000
2015/1/16,397.1217423,0.88540686,6750
2015/1/17,397.840382,0.796469574,7000
2015/1/21,398.1262787,1.535472481,3400
2015/1/22,398.4322434,1.423711587,7250
2015/1/23,399.4016094,1.32392046,6999.75
2015/1/24,399.1159249,0.97655169,4500
2015/1/25,398.0224084,0.76469944,7250
2015/1/26,397.3239345,0.972202488,6750
2015/1/27,397.5928309,0.911029802,6750
2015/1/28,397.5343799,0.808907785,7000
2015/1/29,398.4731019,1.067440812,7500
2015/3/16,397.7451797,0.567221236,7500
2015/3/17,398.3425232,0.865324781,5450
2015/3/18,395.0207707,0.972026293,6250
2015/3/19,394.2501269,0.810580582,7250
2015/3/20,394.3584656,0.763958047,7250
2015/3/21,396.2604593,0.862516008,7250
2015/3/22,394.8501434,0.744950102,6000
2015/3/23,396.1011222,0.866996933,7250
2015/3/24,394.9722554,0.59937895,5750
2015/3/25,394.2161513,0.650044831,6750
2015/3/26,394.8732609,0.852880564,7000
2015/3/27,396.0939986,0.801016462,7750
2015/3/28,392.950005,0.60216788,7500
2015/3/29,396.4348163,0.704786045,8249.75
2015/3/30,396.4254873,0.749951557,5750
2015/3/31,396.7942365,1.583778289,7500
2015/4/1,395.0713781,0.693410754,8000
2015/4/2,390.7774952,2.004109305,9000
2015/4/4,400.72702,1.288704092,6250
2015/4/5,400.3869509,1.043911523,7750
2015/4/7,399.6618662,0.959999079,7250
2015/4/8,399.1548528,0.965676277,4825
2015/4/9,398.6937662,0.798812026,8250
2015/4/10,397.4332683,0.985944875,7500
2015/4/11,398.2818539,1.160357484,7500
2015/4/13,401.6476546,0.2977052,6250
2015/4/14,397.4895747,0.792661739,6750
2015/4/15,396.9030099,0.760218301,7000
2015/4/18,399.5280393,0.894986635,7500
2015/4/19,398.4588441,0.875667466,6250
2015/4/20,397.5716816,1.295425382,6500
2015/4/22,396.3998709,1.249952879,8499.75
2015/4/23,399.4052728,0.945512916,7000
2015/4/24,398.3707697,0.604687455,7000
2015/4/26,401.1032335,1.083282022,6500
2015/4/27,398.1092868,0.908822491,7000
2015/4/28,397.2420996,0.922032814,7500
2015/4/29,401.1051412,0.874497443,7250
2015/4/30,400.7299671,0.837047131,5000
2015/5/1,395.0713781,0.693410754,7500
2015/5/2,398.1666677,0.929849792,7500
2015/5/3,398.6064484,1.055197453,7000
2015/5/4,400.9301948,0.89903573,6250
2015/5/5,398.2108403,0.957440187,6000
2015/5/6,396.0585793,0.906801088,5750
2015/5/7,399.1552883,0.845081165,5375
2015/5/8,396.862278,0.903331438,8499.75
2015/5/9,398.6447252,0.844429108,7749.75
2015/5/10,395.6296459,1.359628744,7750
2015/5/11,396.019263,0.969684963,7500
2015/5/12,396.4183809,0.810083364,7000
2015/5/13,397.1774617,0.901073609,5000
2015/5/14,393.9835001,0.945625481,6500
2015/5/15,394.3662979,0.922887255,6500
2015/5/17,396.3674008,0.933480112,7500
2015/5/18,395.6449799,0.90260693,7999.75
2015/5/19,394.3905962,0.781457105,6250
2015/5/20,394.3381883,0.970044032,7250
2015/5/21,393.9748774,0.78066966,6750
2015/5/22,395.0807859,1.061317834,6250
2015/5/23,394.7697635,1.100939561,6500
2015/5/24,393.638661,0.680355674,7749.75
2015/5/25,396.3698938,0.837973596,7250
2015/5/26,396.4785273,1.370425872,7500
2015/5/27,397.9243353,0.82924368,2025
2015/5/28,393.8790769,0.903481629,6750
2015/5/29,395.6998784,0.61991686,7749.75
2015/5/30,395.6663412,0.763115704,7250
2015/6/1,394.9864678,1.043372297,7000
2015/6/2,396.6245348,0.769582503,6000
2015/6/3,395.1919434,0.910201168,6250
2015/6/4,398.4025147,1.037872884,5500
2015/6/5,396.9207559,0.918519496,8000
2015/6/6,395.9961449,0.93737153,7749.75
2015/6/7,396.2288014,1.207542316,7500
2015/6/8,393.5121254,1.058318221,2200
2015/6/9,396.3266725,0.890549769,7250
2015/6/10,395.896776,1.055127108,7250
2015/6/11,396.5113578,1.108344183,4325
2015/6/12,396.0734163,1.106577384,6000
2015/6/13,394.6610391,1.104224564,6750
2015/6/14,396.5674411,1.223205861,6500
2015/6/15,398.0672011,1.44909519,5250
2015/6/16,397.154104,1.229186705,7500
2015/6/17,395.4446198,1.253727686,6500
2015/6/18,396.3942404,1.459876607,6249.75
2015/6/19,394.7463225,1.437315671,7000
2015/6/20,396.1040726,1.515422103,6250
2015/6/21,396.2880366,1.597119774,8499.75
2015/6/23,396.9723216,1.523420258,7750
2015/6/24,394.8323645,1.898937244,7500
2015/6/25,394.2392273,1.580807523,7250
2015/6/26,395.7641429,1.626998289,7500
2015/6/27,394.8900752,1.490785088,7500
2015/6/28,395.430795,1.506205635,7500
2015/6/29,395.4001707,1.389107721,8250
2015/6/30,395.4301328,1.304473951,6999.75
2015/7/1,396.0462255,1.302707379,6999.75
2015/7/2,396.0330719,1.11026183,6999.75
2015/7/3,397.2926485,1.437741374,6000
2015/7/4,396.3917788,0.900074264,4925
2015/7/5,397.7975586,1.180840694,6250
2015/7/6,398.0864581,1.027431857,6500
2015/7/7,396.5710975,1.108511291,7000
2015/7/8,396.8803403,1.186244283,7499.75
2015/7/9,396.2067872,0.795490418,6999.75
2015/7/10,396.9493181,0.981045676,5250
2015/7/11,395.4100318,0.849830375,5250
2015/7/12,394.4370402,1.059432415,3075
2015/7/13,396.4665706,1.136350852,4500
2015/7/14,394.5218906,1.171629211,5250
2015/7/15,395.038249,1.522141899,2800
2015/7/16,395.4425069,0.993175517,6500
2015/7/17,394.0573262,1.245112943,5000
2015/7/18,395.3245303,0.968498418,6999.75
2015/7/19,396.5167558,1.745150654,7249.75
2015/7/20,395.8387726,1.185216155,6500
2015/7/21,394.6411726,1.292455729,4325
2015/7/22,393.353928,0.965808219,7250
2015/7/23,394.3586786,0.965130877,6000
2015/7/24,395.160096,1.126671742,4000
2015/7/25,393.7546537,0.891829673,5624.75
2015/7/26,396.5069134,0.989330591,3625
2015/7/27,395.925162,0.975033165,6333.333333
2015/7/28,395.5179627,1.02254816,6000
2015/7/29,396.6406589,1.081155022,2250
2015/7/30,395.8134642,1.134869662,4749.75
2015/7/31,395.1144966,1.386330248,7000
2015/8/1,395.7728054,1.038212216,3125
2015/8/2,396.9932161,0.906392507,5250
2015/8/3,396.0577749,1.495596296,6499.75
2015/8/4,396.2780832,1.672171172,4750
2015/8/5,396.2820873,1.419839448,3750
2015/8/6,395.9379432,1.183481348,3000
2015/8/7,395.3264607,1.04981627,3750
2015/8/8,396.1968512,1.327321234,5250
2015/8/9,392.3710511,0.829999288,2050
